Year,Month,Day,Hour,Minute,Value (Times are PST for temperature in C)
2009,07,22,00,00,16.60
2009,07,22,00,01,16.60
2009,07,22,00,02,16.60
2009,07,22,00,03,16.60
2009,07,22,00,04,16.60
2009,07,22,00,05,16.60
2009,07,22,00,06,16.50
2009,07,22,00,07,16.50
2009,07,22,00,08,16.50
2009,07,22,00,09,16.50
2009,07,22,00,10,16.50
2009,07,22,00,11,16.40
2009,07,22,00,12,16.40
2009,07,22,00,13,16.40
2009,07,22,00,14,16.40
2009,07,22,00,15,16.30
2009,07,22,00,16,16.30
2009,07,22,00,17,16.30
2009,07,22,00,18,16.20
2009,07,22,00,19,16.20
2009,07,22,00,20,16.20
2009,07,22,00,21,16.10
2009,07,22,00,22,16.10
2009,07,22,00,23,16.10
2009,07,22,00,24,16.10
2009,07,22,00,25,16.00
2009,07,22,00,26,16.00
2009,07,22,00,27,16.00
2009,07,22,00,28,15.90
2009,07,22,00,29,15.90
2009,07,22,00,30,15.90
2009,07,22,00,31,15.90
2009,07,22,00,32,15.80
2009,07,22,00,33,15.80
2009,07,22,00,34,15.80
2009,07,22,00,35,15.70
2009,07,22,00,36,15.70
2009,07,22,00,37,15.60
2009,07,22,00,38,15.60
2009,07,22,00,39,15.60
2009,07,22,00,40,15.50
2009,07,22,00,41,15.50
2009,07,22,00,42,15.40
2009,07,22,00,43,15.40
2009,07,22,00,44,15.40
2009,07,22,00,45,15.30
2009,07,22,00,46,15.30
2009,07,22,00,47,15.30
2009,07,22,00,48,15.20
2009,07,22,00,49,15.20
2009,07,22,00,50,15.20
2009,07,22,00,51,15.10
2009,07,22,00,52,15.10
2009,07,22,00,53,15.00
2009,07,22,00,54,15.00
2009,07,22,00,55,14.90
2009,07,22,00,56,14.90
2009,07,22,00,57,14.90
2009,07,22,00,58,14.80
2009,07,22,00,59,14.80
2009,07,22,01,00,14.80
2009,07,22,01,01,14.70
2009,07,22,01,02,14.70
2009,07,22,01,03,14.60
2009,07,22,01,04,14.50
2009,07,22,01,05,14.50
2009,07,22,01,06,14.40
2009,07,22,01,07,14.40
2009,07,22,01,08,14.30
2009,07,22,01,09,14.30
2009,07,22,01,10,14.30
2009,07,22,01,11,14.20
2009,07,22,01,12,14.20
2009,07,22,01,13,14.20
2009,07,22,01,14,14.10
2009,07,22,01,15,14.10
2009,07,22,01,16,14.00
2009,07,22,01,17,14.00
2009,07,22,01,18,13.90
2009,07,22,01,19,13.90
2009,07,22,01,20,13.90
2009,07,22,01,21,13.80
2009,07,22,01,22,13.80
2009,07,22,01,23,13.80
2009,07,22,01,24,13.80
2009,07,22,01,25,13.70
2009,07,22,01,26,13.70
2009,07,22,01,27,13.70
2009,07,22,01,28,13.70
2009,07,22,01,29,13.70
2009,07,22,01,30,13.60
2009,07,22,01,31,13.60
2009,07,22,01,32,13.60
2009,07,22,01,33,13.60
2009,07,22,01,34,13.60
2009,07,22,01,35,13.60
2009,07,22,01,36,13.50
2009,07,22,01,37,13.50
2009,07,22,01,38,13.50
2009,07,22,01,39,13.50
2009,07,22,01,40,13.50
2009,07,22,01,41,13.40
2009,07,22,01,42,13.40
2009,07,22,01,43,13.40
2009,07,22,01,44,13.40
2009,07,22,01,45,13.40
2009,07,22,01,46,13.40
2009,07,22,01,47,13.40
2009,07,22,01,48,13.40
2009,07,22,01,49,13.40
2009,07,22,01,50,13.40
2009,07,22,01,51,13.30
2009,07,22,01,52,13.30
2009,07,22,01,53,13.30
2009,07,22,01,54,13.30
2009,07,22,01,55,13.30
2009,07,22,01,56,13.30
2009,07,22,01,57,13.30
2009,07,22,01,58,13.20
2009,07,22,01,59,13.20
2009,07,22,02,00,13.20
2009,07,22,02,01,13.20
2009,07,22,02,02,13.20
2009,07,22,02,03,13.20
2009,07,22,02,04,13.20
2009,07,22,02,05,13.20
2009,07,22,02,06,13.20
2009,07,22,02,07,13.20
2009,07,22,02,08,13.20
2009,07,22,02,09,13.20
2009,07,22,02,10,13.20
2009,07,22,02,11,13.20
2009,07,22,02,12,13.20
2009,07,22,02,13,13.20
2009,07,22,02,14,13.20
2009,07,22,02,15,13.20
2009,07,22,02,16,13.20
2009,07,22,02,17,13.20
2009,07,22,02,18,13.20
2009,07,22,02,19,13.20
2009,07,22,02,20,13.20
2009,07,22,02,21,13.20
2009,07,22,02,22,13.20
2009,07,22,02,23,13.20
2009,07,22,02,24,13.30
2009,07,22,02,25,13.30
2009,07,22,02,26,13.30
2009,07,22,02,27,13.30
2009,07,22,02,28,13.30
2009,07,22,02,29,13.30
2009,07,22,02,30,13.30
2009,07,22,02,31,13.30
2009,07,22,02,32,13.40
2009,07,22,02,33,13.40
2009,07,22,02,34,13.40
2009,07,22,02,35,13.40
2009,07,22,02,36,13.50
2009,07,22,02,37,13.50
2009,07,22,02,38,13.50
2009,07,22,02,39,13.60
2009,07,22,02,40,13.60
2009,07,22,02,41,13.60
2009,07,22,02,42,13.60
2009,07,22,02,43,13.60
2009,07,22,02,44,13.60
2009,07,22,02,45,13.70
2009,07,22,02,46,13.70
2009,07,22,02,47,13.70
2009,07,22,02,48,13.70
2009,07,22,02,49,13.70
2009,07,22,02,50,13.70
2009,07,22,02,51,13.70
2009,07,22,02,52,13.70
2009,07,22,02,53,13.70
2009,07,22,02,54,13.70
2009,07,22,02,55,13.70
2009,07,22,02,56,13.70
2009,07,22,02,57,13.70
2009,07,22,02,58,13.70
2009,07,22,02,59,13.70
2009,07,22,03,00,13.70
2009,07,22,03,01,13.70
2009,07,22,03,02,13.70
2009,07,22,03,03,13.80
2009,07,22,03,04,13.80
2009,07,22,03,05,13.80
2009,07,22,03,06,13.80
2009,07,22,03,07,13.80
2009,07,22,03,08,13.80
2009,07,22,03,09,13.80
2009,07,22,03,10,13.80
2009,07,22,03,11,13.80
2009,07,22,03,12,13.80
2009,07,22,03,13,13.80
2009,07,22,03,14,13.80
2009,07,22,03,15,13.80
2009,07,22,03,16,13.80
2009,07,22,03,17,13.80
2009,07,22,03,18,13.80
2009,07,22,03,19,13.80
2009,07,22,03,20,13.80
2009,07,22,03,21,13.80
2009,07,22,03,22,13.80
2009,07,22,03,23,13.80
2009,07,22,03,24,13.80
2009,07,22,03,25,13.70
2009,07,22,03,26,13.70
2009,07,22,03,27,13.70
2009,07,22,03,28,13.70
2009,07,22,03,29,13.70
2009,07,22,03,30,13.70
2009,07,22,03,31,13.70
2009,07,22,03,32,13.70
2009,07,22,03,33,13.70
2009,07,22,03,34,13.60
2009,07,22,03,35,13.60
2009,07,22,03,36,13.60
2009,07,22,03,37,13.60
2009,07,22,03,38,13.60
2009,07,22,03,39,13.60
2009,07,22,03,40,13.50
2009,07,22,03,41,13.50
2009,07,22,03,42,13.50
2009,07,22,03,43,13.40
2009,07,22,03,44,13.40
2009,07,22,03,45,13.40
2009,07,22,03,46,13.40
2009,07,22,03,47,13.30
2009,07,22,03,48,13.30
2009,07,22,03,49,13.30
2009,07,22,03,50,13.30
2009,07,22,03,51,13.30
2009,07,22,03,52,13.30
2009,07,22,03,53,13.20
2009,07,22,03,54,13.20
2009,07,22,03,55,13.20
2009,07,22,03,56,13.20
2009,07,22,03,57,13.20
2009,07,22,03,58,13.20
2009,07,22,03,59,13.20
2009,07,22,04,00,13.20
2009,07,22,04,01,13.20
2009,07,22,04,02,13.20
2009,07,22,04,03,13.20
2009,07,22,04,04,13.20
2009,07,22,04,05,13.20
2009,07,22,04,06,13.20
2009,07,22,04,07,13.10
2009,07,22,04,08,13.10
2009,07,22,04,09,13.10
2009,07,22,04,10,13.10
2009,07,22,04,11,13.10
2009,07,22,04,12,13.10
2009,07,22,04,13,13.10
2009,07,22,04,14,13.10
2009,07,22,04,15,13.10
2009,07,22,04,16,13.10
2009,07,22,04,17,13.10
2009,07,22,04,18,13.10
2009,07,22,04,19,13.10
2009,07,22,04,20,13.10
2009,07,22,04,21,13.10
2009,07,22,04,22,13.10
2009,07,22,04,23,13.20
2009,07,22,04,24,13.20
2009,07,22,04,25,13.20
2009,07,22,04,26,13.20
2009,07,22,04,27,13.30
2009,07,22,04,28,13.30
2009,07,22,04,29,13.30
2009,07,22,04,30,13.40
2009,07,22,04,31,13.40
2009,07,22,04,32,13.40
2009,07,22,04,33,13.50
2009,07,22,04,34,13.50
2009,07,22,04,35,13.60
2009,07,22,04,36,13.60
2009,07,22,04,37,13.60
2009,07,22,04,38,13.60
2009,07,22,04,39,13.60
2009,07,22,04,40,13.60
2009,07,22,04,41,13.60
2009,07,22,04,42,13.60
2009,07,22,04,43,13.70
2009,07,22,04,44,13.70
2009,07,22,04,45,13.70
2009,07,22,04,46,13.70
2009,07,22,04,47,13.70
2009,07,22,04,48,13.70
2009,07,22,04,49,13.70
2009,07,22,04,50,13.70
2009,07,22,04,51,13.70
2009,07,22,04,52,13.70
2009,07,22,04,53,13.70
2009,07,22,04,54,13.70
2009,07,22,04,55,13.70
2009,07,22,04,56,13.70
2009,07,22,04,57,13.70
2009,07,22,04,58,13.70
2009,07,22,04,59,13.60
2009,07,22,05,00,13.60
2009,07,22,05,01,13.60
2009,07,22,05,02,13.60
2009,07,22,05,03,13.60
2009,07,22,05,04,13.60
2009,07,22,05,05,13.60
2009,07,22,05,06,13.60
2009,07,22,05,07,13.60
2009,07,22,05,08,13.60
2009,07,22,05,09,13.60
2009,07,22,05,10,13.60
2009,07,22,05,11,13.60
2009,07,22,05,12,13.60
2009,07,22,05,13,13.50
2009,07,22,05,14,13.50
2009,07,22,05,15,13.50
2009,07,22,05,16,13.40
2009,07,22,05,17,13.40
2009,07,22,05,18,13.40
2009,07,22,05,19,13.40
2009,07,22,05,20,13.40
2009,07,22,05,21,13.30
2009,07,22,05,22,13.30
2009,07,22,05,23,13.30
2009,07,22,05,24,13.30
2009,07,22,05,25,13.20
2009,07,22,05,26,13.20
2009,07,22,05,27,13.20
2009,07,22,05,28,13.20
2009,07,22,05,29,13.10
2009,07,22,05,30,13.10
2009,07,22,05,31,13.10
2009,07,22,05,32,13.10
2009,07,22,05,33,13.00
2009,07,22,05,34,13.00
2009,07,22,05,35,13.00
2009,07,22,05,36,12.90
2009,07,22,05,37,12.90
2009,07,22,05,38,12.90
2009,07,22,05,39,12.80
2009,07,22,05,40,12.80
2009,07,22,05,41,12.80
2009,07,22,05,42,12.80
2009,07,22,05,43,12.70
2009,07,22,05,44,12.70
2009,07,22,05,45,12.70
2009,07,22,05,46,12.70
2009,07,22,05,47,12.70
2009,07,22,05,48,12.60
2009,07,22,05,49,12.60
2009,07,22,05,50,12.60
2009,07,22,05,51,12.60
2009,07,22,05,52,12.60
2009,07,22,05,53,12.60
2009,07,22,05,54,12.50
2009,07,22,05,55,12.50
2009,07,22,05,56,12.50
2009,07,22,05,57,12.50
2009,07,22,05,58,12.50
2009,07,22,05,59,12.50
2009,07,22,06,00,12.50
2009,07,22,06,01,12.50
2009,07,22,06,02,12.50
2009,07,22,06,03,12.50
2009,07,22,06,04,12.60
2009,07,22,06,05,12.60
2009,07,22,06,06,12.60
2009,07,22,06,07,12.60
2009,07,22,06,08,12.60
2009,07,22,06,09,12.60
2009,07,22,06,10,12.70
2009,07,22,06,11,12.70
2009,07,22,06,12,12.70
2009,07,22,06,13,12.70
2009,07,22,06,14,12.70
2009,07,22,06,15,12.70
2009,07,22,06,16,12.80
2009,07,22,06,17,12.80
2009,07,22,06,18,12.80
2009,07,22,06,19,12.80
2009,07,22,06,20,12.80
2009,07,22,06,21,12.90
2009,07,22,06,22,12.90
2009,07,22,06,23,12.90
2009,07,22,06,24,12.90
2009,07,22,06,25,13.00
2009,07,22,06,26,13.00
2009,07,22,06,27,13.10
2009,07,22,06,28,13.10
2009,07,22,06,29,13.10
2009,07,22,06,30,13.20
2009,07,22,06,31,13.20
2009,07,22,06,32,13.20
2009,07,22,06,33,13.30
2009,07,22,06,34,13.30
2009,07,22,06,35,13.30
2009,07,22,06,36,13.30
2009,07,22,06,37,13.40
2009,07,22,06,38,13.40
2009,07,22,06,39,13.50
2009,07,22,06,40,13.50
2009,07,22,06,41,13.50
2009,07,22,06,42,13.60
2009,07,22,06,43,13.60
2009,07,22,06,44,13.60
2009,07,22,06,45,13.70
2009,07,22,06,46,13.70
2009,07,22,06,47,13.70
2009,07,22,06,48,13.80
2009,07,22,06,49,13.80
2009,07,22,06,50,13.90
2009,07,22,06,51,13.90
2009,07,22,06,52,14.00
2009,07,22,06,53,14.10
2009,07,22,06,54,14.10
2009,07,22,06,55,14.20
2009,07,22,06,56,14.30
2009,07,22,06,57,14.30
2009,07,22,06,58,14.40
2009,07,22,06,59,14.40
2009,07,22,07,00,14.50
2009,07,22,07,01,14.50
2009,07,22,07,02,14.60
2009,07,22,07,03,14.70
2009,07,22,07,04,14.70
2009,07,22,07,05,14.80
2009,07,22,07,06,14.80
2009,07,22,07,07,14.80
2009,07,22,07,08,14.90
2009,07,22,07,09,14.90
2009,07,22,07,10,14.90
2009,07,22,07,11,15.00
2009,07,22,07,12,15.00
2009,07,22,07,13,15.10
2009,07,22,07,14,15.10
2009,07,22,07,15,15.10
2009,07,22,07,16,15.20
2009,07,22,07,17,15.20
2009,07,22,07,18,15.20
2009,07,22,07,19,15.20
2009,07,22,07,20,15.20
2009,07,22,07,21,15.20
2009,07,22,07,22,15.30
2009,07,22,07,23,15.30
2009,07,22,07,24,15.30
2009,07,22,07,25,15.30
2009,07,22,07,26,15.40
2009,07,22,07,27,15.40
2009,07,22,07,28,15.50
2009,07,22,07,29,15.50
2009,07,22,07,30,15.60
2009,07,22,07,31,15.60
2009,07,22,07,32,15.60
2009,07,22,07,33,15.70
2009,07,22,07,34,15.70
2009,07,22,07,35,15.80
2009,07,22,07,36,15.80
2009,07,22,07,37,15.80
2009,07,22,07,38,15.90
2009,07,22,07,39,15.90
2009,07,22,07,40,15.90
2009,07,22,07,41,16.00
2009,07,22,07,42,16.00
2009,07,22,07,43,16.10
2009,07,22,07,44,16.10
2009,07,22,07,45,16.20
2009,07,22,07,46,16.20
2009,07,22,07,47,16.20
2009,07,22,07,48,16.30
2009,07,22,07,49,16.40
2009,07,22,07,50,16.40
2009,07,22,07,51,16.50
2009,07,22,07,52,16.60
2009,07,22,07,53,16.60
2009,07,22,07,54,16.70
2009,07,22,07,55,16.70
2009,07,22,07,56,16.70
2009,07,22,07,57,16.80
2009,07,22,07,58,16.80
2009,07,22,07,59,16.90
2009,07,22,08,00,17.00
2009,07,22,08,01,17.10
2009,07,22,08,02,17.10
2009,07,22,08,03,17.20
2009,07,22,08,04,17.20
2009,07,22,08,05,17.30
2009,07,22,08,06,17.40
2009,07,22,08,07,17.40
2009,07,22,08,08,17.50
2009,07,22,08,09,17.60
2009,07,22,08,10,17.70
2009,07,22,08,11,17.80
2009,07,22,08,12,17.80
2009,07,22,08,13,18.00
2009,07,22,08,14,18.00
2009,07,22,08,15,18.10
2009,07,22,08,16,18.20
2009,07,22,08,17,18.30
2009,07,22,08,18,18.40
2009,07,22,08,19,18.40
2009,07,22,08,20,18.50
2009,07,22,08,21,18.50
2009,07,22,08,22,18.60
2009,07,22,08,23,18.70
2009,07,22,08,24,18.70
2009,07,22,08,25,18.70
2009,07,22,08,26,18.80
2009,07,22,08,27,18.80
2009,07,22,08,28,18.80
2009,07,22,08,29,18.80
2009,07,22,08,30,18.80
2009,07,22,08,31,18.80
2009,07,22,08,32,18.80
2009,07,22,08,33,18.80
2009,07,22,08,34,18.80
2009,07,22,08,35,18.80
2009,07,22,08,36,18.80
2009,07,22,08,37,18.90
2009,07,22,08,38,18.90
2009,07,22,08,39,19.00
2009,07,22,08,40,19.10
2009,07,22,08,41,19.10
2009,07,22,08,42,19.20
2009,07,22,08,43,19.20
2009,07,22,08,44,19.30
2009,07,22,08,45,19.30
2009,07,22,08,46,19.30
2009,07,22,08,47,19.30
2009,07,22,08,48,19.30
2009,07,22,08,49,19.30
2009,07,22,08,50,19.30
2009,07,22,08,51,19.30
2009,07,22,08,52,19.30
2009,07,22,08,53,19.30
2009,07,22,08,54,19.30
2009,07,22,08,55,19.30
2009,07,22,08,56,19.20
2009,07,22,08,57,19.20
2009,07,22,08,58,19.10
2009,07,22,08,59,19.00
2009,07,22,09,00,18.90
2009,07,22,09,01,18.90
2009,07,22,09,02,18.80
2009,07,22,09,03,18.70
2009,07,22,09,04,18.60
2009,07,22,09,05,18.40
2009,07,22,09,06,18.30
2009,07,22,09,07,18.20
2009,07,22,09,08,18.10
2009,07,22,09,09,17.90
2009,07,22,09,10,17.80
2009,07,22,09,11,17.70
2009,07,22,09,12,17.60
2009,07,22,09,13,17.50
2009,07,22,09,14,17.40
2009,07,22,09,15,17.30
2009,07,22,09,16,17.20
2009,07,22,09,17,17.20
2009,07,22,09,18,17.10
2009,07,22,09,19,17.10
2009,07,22,09,20,17.10
2009,07,22,09,21,17.00
2009,07,22,09,22,16.90
2009,07,22,09,23,16.90
2009,07,22,09,24,16.90
2009,07,22,09,25,16.80
2009,07,22,09,26,16.80
2009,07,22,09,27,16.80
2009,07,22,09,28,16.80
2009,07,22,09,29,16.90
2009,07,22,09,30,17.00
2009,07,22,09,31,17.10
2009,07,22,09,32,17.20
2009,07,22,09,33,17.30
2009,07,22,09,34,17.30
2009,07,22,09,35,17.40
2009,07,22,09,36,17.50
2009,07,22,09,37,17.50
2009,07,22,09,38,17.60
2009,07,22,09,39,17.50
2009,07,22,09,40,17.50
2009,07,22,09,41,17.50
2009,07,22,09,42,17.40
2009,07,22,09,43,17.40
2009,07,22,09,44,17.30
2009,07,22,09,45,17.30
2009,07,22,09,46,17.20
2009,07,22,09,47,17.10
2009,07,22,09,48,17.00
2009,07,22,09,49,17.00
2009,07,22,09,50,16.90
2009,07,22,09,51,16.90
2009,07,22,09,52,16.90
2009,07,22,09,53,16.90
2009,07,22,09,54,16.90
2009,07,22,09,55,16.90
2009,07,22,09,56,16.90
2009,07,22,09,57,16.80
2009,07,22,09,58,16.80
2009,07,22,09,59,16.80
2009,07,22,10,00,16.70
2009,07,22,10,01,16.60
2009,07,22,10,02,16.50
2009,07,22,10,03,16.40
2009,07,22,10,04,16.30
2009,07,22,10,05,16.20
2009,07,22,10,06,16.10
2009,07,22,10,07,16.00
2009,07,22,10,08,16.10
2009,07,22,10,09,16.10
2009,07,22,10,10,16.10
2009,07,22,10,11,16.00
2009,07,22,10,12,16.00
2009,07,22,10,13,16.00
2009,07,22,10,14,15.90
2009,07,22,10,15,15.80
2009,07,22,10,16,15.70
2009,07,22,10,17,15.60
2009,07,22,10,18,15.60
2009,07,22,10,19,15.50
2009,07,22,10,20,15.40
2009,07,22,10,21,15.40
2009,07,22,10,22,15.40
2009,07,22,10,23,15.40
2009,07,22,10,24,15.30
2009,07,22,10,25,15.30
2009,07,22,10,26,15.30
2009,07,22,10,27,15.20
2009,07,22,10,28,15.10
2009,07,22,10,29,15.10
2009,07,22,10,30,15.00
2009,07,22,10,31,14.90
2009,07,22,10,32,14.80
2009,07,22,10,33,14.80
2009,07,22,10,34,14.70
2009,07,22,10,35,14.70
2009,07,22,10,36,14.70
2009,07,22,10,37,14.70
2009,07,22,10,38,14.60
2009,07,22,10,39,14.60
2009,07,22,10,40,14.60
2009,07,22,10,41,14.60
2009,07,22,10,42,14.60
2009,07,22,10,43,14.60
2009,07,22,10,44,14.70
2009,07,22,10,45,14.80
2009,07,22,10,46,14.80
2009,07,22,10,47,14.90
2009,07,22,10,48,15.00
2009,07,22,10,49,15.00
2009,07,22,10,50,15.10
2009,07,22,10,51,15.10
2009,07,22,10,52,15.20
2009,07,22,10,53,15.20
2009,07,22,10,54,15.30
2009,07,22,10,55,15.40
2009,07,22,10,56,15.50
2009,07,22,10,57,15.60
2009,07,22,10,58,15.70
2009,07,22,10,59,15.80
2009,07,22,11,00,15.80
2009,07,22,11,01,15.80
2009,07,22,11,02,15.90
2009,07,22,11,03,15.90
2009,07,22,11,04,15.90
2009,07,22,11,05,15.90
2009,07,22,11,06,15.90
2009,07,22,11,07,15.90
2009,07,22,11,08,15.90
2009,07,22,11,09,15.90
2009,07,22,11,10,16.00
2009,07,22,11,11,16.00
2009,07,22,11,12,16.00
2009,07,22,11,13,15.90
2009,07,22,11,14,15.90
2009,07,22,11,15,15.90
2009,07,22,11,16,15.90
2009,07,22,11,17,15.90
2009,07,22,11,18,15.90
2009,07,22,11,19,15.90
2009,07,22,11,20,16.00
2009,07,22,11,21,16.00
2009,07,22,11,22,16.00
2009,07,22,11,23,16.10
2009,07,22,11,24,16.10
2009,07,22,11,25,16.10
2009,07,22,11,26,16.10
2009,07,22,11,27,16.10
2009,07,22,11,28,16.10
2009,07,22,11,29,16.20
2009,07,22,11,30,16.20
2009,07,22,11,31,16.30
2009,07,22,11,32,16.40
2009,07,22,11,33,16.50
2009,07,22,11,34,16.60
2009,07,22,11,35,16.60
2009,07,22,11,36,16.60
2009,07,22,11,37,16.60
2009,07,22,11,38,16.60
2009,07,22,11,39,16.70
2009,07,22,11,40,16.70
2009,07,22,11,41,16.80
2009,07,22,11,42,16.80
2009,07,22,11,43,16.80
2009,07,22,11,44,16.90
2009,07,22,11,45,16.90
2009,07,22,11,46,16.90
2009,07,22,11,47,16.90
2009,07,22,11,48,16.90
2009,07,22,11,49,16.90
2009,07,22,11,50,16.90
2009,07,22,11,51,16.90
2009,07,22,11,52,16.80
2009,07,22,11,53,16.80
2009,07,22,11,54,16.80
2009,07,22,11,55,16.90
2009,07,22,11,56,16.90
2009,07,22,11,57,16.90
2009,07,22,11,58,16.90
2009,07,22,11,59,16.80
2009,07,22,12,00,16.80
2009,07,22,12,01,16.80
2009,07,22,12,02,16.80
2009,07,22,12,03,16.80
2009,07,22,12,04,16.80
2009,07,22,12,05,16.80
2009,07,22,12,06,16.80
2009,07,22,12,07,16.80
2009,07,22,12,08,16.80
2009,07,22,12,09,16.90
2009,07,22,12,10,16.90
2009,07,22,12,11,16.90
2009,07,22,12,12,16.90
2009,07,22,12,13,17.00
2009,07,22,12,14,17.00
2009,07,22,12,15,17.10
2009,07,22,12,16,17.10
2009,07,22,12,17,17.10
2009,07,22,12,18,17.10
2009,07,22,12,19,17.10
2009,07,22,12,20,17.10
2009,07,22,12,21,17.10
2009,07,22,12,22,17.20
2009,07,22,12,23,17.20
2009,07,22,12,24,17.20
2009,07,22,12,25,17.20
2009,07,22,12,26,17.30
2009,07,22,12,27,17.30
2009,07,22,12,28,17.30
2009,07,22,12,29,17.40
2009,07,22,12,30,17.50
2009,07,22,12,31,17.60
2009,07,22,12,32,17.60
2009,07,22,12,33,17.70
2009,07,22,12,34,17.70
2009,07,22,12,35,17.60
2009,07,22,12,36,17.60
2009,07,22,12,37,17.60
2009,07,22,12,38,17.60
2009,07,22,12,39,17.60
2009,07,22,12,40,17.60
2009,07,22,12,41,17.60
2009,07,22,12,42,17.70
2009,07,22,12,43,17.70
2009,07,22,12,44,17.70
2009,07,22,12,45,17.70
2009,07,22,12,46,17.70
2009,07,22,12,47,17.70
2009,07,22,12,48,17.80
2009,07,22,12,49,17.80
2009,07,22,12,50,17.80
2009,07,22,12,51,17.80
2009,07,22,12,52,17.80
2009,07,22,12,53,17.90
2009,07,22,12,54,17.90
2009,07,22,12,55,18.00
2009,07,22,12,56,18.00
2009,07,22,12,57,18.00
2009,07,22,12,58,17.90
2009,07,22,12,59,17.90
2009,07,22,13,00,18.00
2009,07,22,13,01,18.00
2009,07,22,13,02,18.10
2009,07,22,13,03,18.10
2009,07,22,13,04,18.20
2009,07,22,13,05,18.20
2009,07,22,13,06,18.20
2009,07,22,13,07,18.30
2009,07,22,13,08,18.30
2009,07,22,13,09,18.30
2009,07,22,13,10,18.30
2009,07,22,13,11,18.30
2009,07,22,13,12,18.30
2009,07,22,13,13,18.30
2009,07,22,13,14,18.40
2009,07,22,13,15,18.40
2009,07,22,13,16,18.30
2009,07,22,13,17,18.40
2009,07,22,13,18,18.40
2009,07,22,13,19,18.50
2009,07,22,13,20,18.50
2009,07,22,13,21,18.60
2009,07,22,13,22,18.70
2009,07,22,13,23,18.70
2009,07,22,13,24,18.80
2009,07,22,13,25,18.80
2009,07,22,13,26,18.90
2009,07,22,13,27,18.90
2009,07,22,13,28,18.90
2009,07,22,13,29,18.90
2009,07,22,13,30,19.00
2009,07,22,13,31,19.00
2009,07,22,13,32,19.00
2009,07,22,13,33,19.00
2009,07,22,13,34,19.00
2009,07,22,13,35,19.10
2009,07,22,13,36,19.10
2009,07,22,13,37,19.20
2009,07,22,13,38,19.20
2009,07,22,13,39,19.30
2009,07,22,13,40,19.20
2009,07,22,13,41,19.20
2009,07,22,13,42,19.20
2009,07,22,13,43,19.30
2009,07,22,13,44,19.30
2009,07,22,13,45,19.30
2009,07,22,13,46,19.30
2009,07,22,13,47,19.40
2009,07,22,13,48,19.40
2009,07,22,13,49,19.50
2009,07,22,13,50,19.50
2009,07,22,13,51,19.60
2009,07,22,13,52,19.60
2009,07,22,13,53,19.60
2009,07,22,13,54,19.70
2009,07,22,13,55,19.70
2009,07,22,13,56,19.70
2009,07,22,13,57,19.70
2009,07,22,13,58,19.70
2009,07,22,13,59,19.70
2009,07,22,14,00,19.70
2009,07,22,14,01,19.80
2009,07,22,14,02,19.90
2009,07,22,14,03,20.00
2009,07,22,14,04,20.10
2009,07,22,14,05,20.20
2009,07,22,14,06,20.20
2009,07,22,14,07,20.30
2009,07,22,14,08,20.30
2009,07,22,14,09,20.30
2009,07,22,14,10,20.40
2009,07,22,14,11,20.50
2009,07,22,14,12,20.50
2009,07,22,14,13,20.60
2009,07,22,14,14,20.60
2009,07,22,14,15,20.60
2009,07,22,14,16,20.70
2009,07,22,14,17,20.70
2009,07,22,14,18,20.80
2009,07,22,14,19,20.80
2009,07,22,14,20,20.80
2009,07,22,14,21,20.80
2009,07,22,14,22,20.80
2009,07,22,14,23,20.70
2009,07,22,14,24,20.70
2009,07,22,14,25,20.70
2009,07,22,14,26,20.80
2009,07,22,14,27,20.80
2009,07,22,14,28,20.90
2009,07,22,14,29,20.90
2009,07,22,14,30,20.90
2009,07,22,14,31,20.90
2009,07,22,14,32,21.00
2009,07,22,14,33,21.00
2009,07,22,14,34,21.10
2009,07,22,14,35,21.20
2009,07,22,14,36,21.20
2009,07,22,14,37,21.30
2009,07,22,14,38,21.40
2009,07,22,14,39,21.50
2009,07,22,14,40,21.60
2009,07,22,14,41,21.60
2009,07,22,14,42,21.70
2009,07,22,14,43,21.60
2009,07,22,14,44,21.60
2009,07,22,14,45,21.60
2009,07,22,14,46,21.50
2009,07,22,14,47,21.50
2009,07,22,14,48,21.40
2009,07,22,14,49,21.40
2009,07,22,14,50,21.40
2009,07,22,14,51,21.30
2009,07,22,14,52,21.30
2009,07,22,14,53,21.30
2009,07,22,14,54,21.20
2009,07,22,14,55,21.20
2009,07,22,14,56,21.20
2009,07,22,14,57,21.30
2009,07,22,14,58,21.30
2009,07,22,14,59,21.30
2009,07,22,15,00,21.40
2009,07,22,15,01,21.40
2009,07,22,15,02,21.40
2009,07,22,15,03,21.40
2009,07,22,15,04,21.40
2009,07,22,15,05,21.40
2009,07,22,15,06,21.40
2009,07,22,15,07,21.40
2009,07,22,15,08,21.50
2009,07,22,15,09,21.50
2009,07,22,15,10,21.60
2009,07,22,15,11,21.70
2009,07,22,15,12,21.70
2009,07,22,15,13,21.80
2009,07,22,15,14,21.80
2009,07,22,15,15,21.90
2009,07,22,15,16,22.00
2009,07,22,15,17,22.00
2009,07,22,15,18,22.10
2009,07,22,15,19,22.20
2009,07,22,15,20,22.20
2009,07,22,15,21,22.30
2009,07,22,15,22,22.30
2009,07,22,15,23,22.30
2009,07,22,15,24,22.20
2009,07,22,15,25,22.20
2009,07,22,15,26,22.20
2009,07,22,15,27,22.20
2009,07,22,15,28,22.30
2009,07,22,15,29,22.30
2009,07,22,15,30,22.30
2009,07,22,15,31,22.30
2009,07,22,15,32,22.30
2009,07,22,15,33,22.30
2009,07,22,15,34,22.30
2009,07,22,15,35,22.30
2009,07,22,15,36,22.30
2009,07,22,15,37,22.40
2009,07,22,15,38,22.40
2009,07,22,15,39,22.50
2009,07,22,15,40,22.50
2009,07,22,15,41,22.50
2009,07,22,15,42,22.50
2009,07,22,15,43,22.40
2009,07,22,15,44,22.40
2009,07,22,15,45,22.40
2009,07,22,15,46,22.20
2009,07,22,15,47,22.20
2009,07,22,15,48,22.20
2009,07,22,15,49,22.20
2009,07,22,15,50,22.20
2009,07,22,15,51,22.20
2009,07,22,15,52,22.10
2009,07,22,15,53,22.10
2009,07,22,15,54,22.10
2009,07,22,15,55,22.10
2009,07,22,15,56,22.10
2009,07,22,15,57,22.10
2009,07,22,15,58,22.20
2009,07,22,15,59,22.20
2009,07,22,16,00,22.20
2009,07,22,16,01,22.20
2009,07,22,16,02,22.20
2009,07,22,16,03,22.20
2009,07,22,16,04,22.20
2009,07,22,16,05,22.20
2009,07,22,16,06,22.30
2009,07,22,16,07,22.30
2009,07,22,16,08,22.30
2009,07,22,16,09,22.40
2009,07,22,16,10,22.40
2009,07,22,16,11,22.50
2009,07,22,16,12,22.60
2009,07,22,16,13,22.70
2009,07,22,16,14,22.70
2009,07,22,16,15,22.70
2009,07,22,16,16,22.70
2009,07,22,16,17,22.80
2009,07,22,16,18,22.80
2009,07,22,16,19,22.90
2009,07,22,16,20,22.90
2009,07,22,16,21,22.90
2009,07,22,16,22,22.90
2009,07,22,16,23,23.00
2009,07,22,16,24,23.00
2009,07,22,16,25,23.00
2009,07,22,16,26,23.00
2009,07,22,16,27,23.00
2009,07,22,16,28,23.10
2009,07,22,16,29,23.10
2009,07,22,16,30,23.10
2009,07,22,16,31,23.20
2009,07,22,16,32,23.30
2009,07,22,16,33,23.30
2009,07,22,16,34,23.40
2009,07,22,16,35,23.50
2009,07,22,16,36,23.60
2009,07,22,16,37,23.60
2009,07,22,16,38,23.60
2009,07,22,16,39,23.70
2009,07,22,16,40,23.70
2009,07,22,16,41,23.70
2009,07,22,16,42,23.70
2009,07,22,16,43,23.60
2009,07,22,16,44,23.60
2009,07,22,16,45,23.60
2009,07,22,16,46,23.60
2009,07,22,16,47,23.60
2009,07,22,16,48,23.60
2009,07,22,16,49,23.60
2009,07,22,16,50,23.60
2009,07,22,16,51,23.60
2009,07,22,16,52,23.70
2009,07,22,16,53,23.70
2009,07,22,16,54,23.70
2009,07,22,16,55,23.80
2009,07,22,16,56,23.80
2009,07,22,16,57,23.80
2009,07,22,16,58,23.90
2009,07,22,16,59,23.90
2009,07,22,17,00,23.90
2009,07,22,17,01,23.90
2009,07,22,17,02,23.90
2009,07,22,17,03,23.90
2009,07,22,17,04,23.90
2009,07,22,17,05,23.90
2009,07,22,17,06,23.80
2009,07,22,17,07,23.80
2009,07,22,17,08,23.80
2009,07,22,17,09,23.80
2009,07,22,17,10,23.80
2009,07,22,17,11,23.80
2009,07,22,17,12,23.90
2009,07,22,17,13,23.90
2009,07,22,17,14,23.90
2009,07,22,17,15,23.90
2009,07,22,17,16,23.80
2009,07,22,17,17,23.80
2009,07,22,17,18,23.70
2009,07,22,17,19,23.70